FENGYUN 1C DEB, 46986

Orbit data source: Space-Track

FENGYUN 1C DEB, 46986 is space debris in SSO originally from a launch on Mon, 10 May 1999 UTC launched from the Taiyaun Space Center, China (TSC). Fengyun 1C debris stems from the Chinese weather satellite Fengyun-1C, which was intentionally destroyed by a Chinese anti-satellite missile in 2007. This event dramatically increased the amount of space debris, with thousands of trackable fragments posing hazards to satellites and human spaceflight. The Fengyun 1C debris cloud has become a focal point in discussions about space sustainability and the need for international regulations to prevent the creation of new debris.

Loading next visibility...
Identifier
46986, 1999-025EZL
Orbit
SSO
Country
Flag of CNCN / PRC
Related business
Manufacturer
Unknown
Mission
Spacecraft
Bus & Motor
Unknown
Mass
Unknown
Launch date (UTC)
1999-05-10 (27 years ago)
Launch vehicle
Unknown
Launch site
Taiyaun Space Center, China (TSC)
Object type
Payload
Rocket body
Debris
Shape & HBR
Unknown shape, 0.1 m
Radar Cross Section
Small (<0.1 m²)

Expand to show TLE details & history
Last TLE update: 1 month ago

TLE from 1 month ago
0 FENGYUN 1C DEB
1 46986U 99025EZL 26041.33711525  .00001831  00000-0  47740-3 0  9996
2 46986  98.2361  68.4976 0105168  31.2133 329.5248 14.47432765642624
Epoch: 2026-02-10T08:05Z
TLE epoch observation values (Epoch: 2026-02-10T08:05:26.757Z)
Latitude
-0.00008°
Longitude
166.71709°
Altitude
672.741 km
Speed
7.554 km/s
True Right ascension
04h 33m 59s
True Declination
0° 00' 00"
Sunlit
Object was in daylight at epoch
Visualization orbit readout
Latitude
Unknown
Longitude
Unknown
Altitude
Unknown
Speed
Unknown
Apparent Right ascension
Unknown
Apparent Declination
Unknown
Sunlit
N/A
Visualization observer readout
Local Sidereal Time
17:03:07
Azimuth
Unknown
Elevation
Unknown
Doppler factor
Unknown
Orbital elements
Apogee altitude
805.912 km
Perigee altitude
656.378 km
Semi-major axis
7,109.282 km
Eccentricity
0.01052
Inclination
98.2361°
RAAN
68.4976°
Arg. of periapsis
31.2133°
True anomaly
328.90661°
Mean anomaly
329.5248°
Eccentric anomaly
329.21641°
Mean motion
3.6208 °/min
Orbital period
99.43 mins
BSTAR
0.0004774
Loading maneuver chart data...
Computing Atmospheric mass density...

Documentation

Showing up to 5 results
|